NUSANTARA LIMA (NUSANT*)

Last updated on Wed Sep 09 2026 00:03:04 GMT+0000 (Coordinated Universal Time)

1 65588U 25205A 26251.46743992 .00000000 00000+0 00000+0 0 9994 2 65588 0.0146 135.6122 0000585 119.0391 14.0054 1.00267792 3558
UTC large
Height (km)
Speed (km/s)
/
Latitude / Longitude
Inclination (degrees)
Orbital Period (minutes)
Azimuth
Elevation
Range (km)
Doppler Factor

Next 0 passes for location: London (51.5072 / 0.1276)

No passes found over London.
NUSANTARA LIMA (NUSANT*)